WD6AWP Weather Reports


Display with metric or nautical units.
time (UTC)temp
F
wind
direction
speed
MPH
gust
MPH
rain 1hr
in
rain 24hr
in
rain mn
in
humidity
%
barometer
mb
20190615204515 71 256 6.0 11.0 0.00 0.00 0.00 75 1013.9
20190615203002 71 215 4.0 11.0 0.00 0.00 0.00 74 1014.0
20190615201705 71 195 4.0 10.0 0.00 0.00 0.00 74 1014.1
20190615200147 70 223 4.0 10.0 0.00 0.00 0.00 75 1014.1
20190615194635 69 198 3.0 9.0 0.00 0.00 0.00 77 1014.2
20190615193221 68 217 6.0 9.0 0.00 0.00 0.00 78 1014.4
20190615191636 67 204 5.0 9.0 0.00 0.00 0.00 78 1014.6
20190615190110 67 190 5.0 9.0 0.00 0.00 0.00 79 1014.7
20190615184619 67 196 5.0 9.0 0.00 0.00 0.00 78 1014.6
20190615183211 67 153 3.0 8.0 0.00 0.00 0.00 79 1014.5
20190615181640 67 161 3.0 7.0 0.00 0.00 0.00 79 1014.5
20190615180125 67 179 3.0 6.0 0.00 0.00 0.00 79 1014.6
20190615174607 66 113 0.0 3.0 0.00 0.00 0.00 79 1014.6
20190615173132 66 110 0.0 4.0 0.00 0.00 0.00 80 1014.6
20190615171602 65 101 1.0 6.0 0.00 0.00 0.00 81 1014.6
20190615170135 65 134 2.0 7.0 0.00 0.00 0.00 82 1014.5
20190615164558 65 97 3.0 8.0 0.00 0.00 0.00 82 1014.6
20190615163100 64 98 2.0 7.0 0.00 0.00 0.00 83 1014.6
20190615161609 64 92 4.0 7.0 0.00 0.00 0.00 84 1014.7
20190615160121 64 84 2.0 8.0 0.00 0.00 0.00 84 1014.7
20190615154611 64 115 1.0 7.0 0.00 0.00 0.00 84 1014.6
20190615153056 63 105 4.0 9.0 0.00 0.00 0.00 84 1014.6
20190615151605 63 95 4.0 8.0 0.00 0.00 0.00 85 1014.6
20190615150046 63 49 4.0 8.0 0.00 0.00 0.00 85 1014.6
20190615144532 63 90 4.0 8.0 0.00 0.00 0.00 85 1014.5
20190615143040 63 78 4.0 9.0 0.00 0.00 0.00 85 1014.3
20190615141608 63 67 3.0 8.0 0.00 0.00 0.00 85 1014.2
20190615140030 63 78 2.0 6.0 0.00 0.00 0.00 85 1014.2
20190615134532 62 71 3.0 6.0 0.00 0.00 0.00 84 1014.2
20190615133109 62 57 2.0 5.0 0.00 0.00 0.00 84 1014.1
20190615131522 62 76 1.0 5.0 0.00 0.00 0.00 84 1014.0
20190615130028 62 93 1.0 6.0 0.00 0.00 0.00 84 1013.8
20190615124529 62 96 1.0 4.0 0.00 0.00 0.00 84 1013.7
20190615123026 62 90 2.0 4.0 0.00 0.00 0.00 84 1013.7
20190615121537 63 104 2.0 4.0 0.00 0.00 0.00 84 1013.6
20190615120046 63 85 2.0 4.0 0.00 0.00 0.00 84 1013.4
20190615114518 63 123 1.0 5.0 0.00 0.00 0.00 84 1013.4
20190615113037 63 94 1.0 8.0 0.00 0.00 0.00 84 1013.3
20190615111513 63 115 1.0 3.0 0.00 0.00 0.00 83 1013.3
20190615110012 63 109 1.0 4.0 0.00 0.00 0.00 84 1013.3
20190615104544 63 121 0.0 4.0 0.00 0.00 0.00 84 1013.2
20190615103028 63 148 3.0 7.0 0.00 0.00 0.00 84 1013.1
20190615101517 63 134 3.0 8.0 0.00 0.00 0.00 84 1013.1
20190615100035 63 130 4.0 8.0 0.00 0.00 0.00 84 1013.0
20190615094523 63 141 5.0 10.0 0.00 0.00 0.00 84 1013.0
20190615093004 63 135 1.0 8.0 0.00 0.00 0.00 84 1013.1
20190615091502 63 135 1.0 7.0 0.00 0.00 0.00 84 1013.3
20190615084721 63 192 1.0 5.0 0.00 0.00 0.00 85 1013.5
20190615083139 63 195 2.0 4.0 0.00 0.00 0.00 85 1013.6
20190615081659 63 203 0.0 6.0 0.00 0.00 0.00 85 1013.6
20190615080238 63 196 1.0 5.0 0.00 0.00 0.00 85 1013.6
20190615074702 63 223 0.0 4.0 0.00 0.00 0.00 86 1013.6
20190615073216 63 288 0.0 2.0 0.00 0.00 0.00 86 1013.7
20190615071645 63 288 0.0 3.0 0.00 0.00 0.00 86 1013.7
20190615070145 63 291 0.0 4.0 0.00 0.00 0.00 86 1013.7
20190615064659 63 281 1.0 4.0 0.00 0.00 0.00 86 1013.7
20190615063132 63 281 2.0 4.0 0.00 0.00 0.00 87 1013.7
20190615061655 63 271 2.0 7.0 0.00 0.00 0.00 87 1013.7
20190615060156 62 282 0.0 4.0 0.00 0.00 0.00 88 1013.9
20190615054616 62 286 3.0 7.0 0.00 0.00 0.00 88 1014.0
20190615053116 62 279 4.0 7.0 0.00 0.00 0.00 88 1014.1
20190615051735 62 271 3.0 6.0 0.00 0.00 0.00 88 1014.0
20190615050119 62 261 2.0 7.0 0.00 0.00 0.00 88 1014.0
20190615044615 62 273 4.0 8.0 0.00 0.00 0.00 88 1014.1
20190615043152 62 280 4.0 8.0 0.00 0.00 0.00 87 1014.0
20190615041602 62 271 3.0 7.0 0.00 0.00 0.00 87 1013.7
20190615040151 62 273 3.0 7.0 0.00 0.00 0.00 87 1013.7
20190615034648 63 291 3.0 9.0 0.00 0.00 0.00 86 1013.6
20190615033134 63 281 4.0 9.0 0.00 0.00 0.00 86 1013.5
20190615031715 63 284 4.0 12.0 0.00 0.00 0.00 85 1013.4
20190615030130 64 240 6.0 11.0 0.00 0.00 0.00 85 1013.5
20190615024556 64 257 7.0 11.0 0.00 0.00 0.00 84 1013.5
20190615023053 65 279 5.0 11.0 0.00 0.00 0.00 83 1013.5
20190615021710 65 274 4.0 11.0 0.00 0.00 0.00 82 1013.4
20190615020129 66 227 6.0 11.0 0.00 0.00 0.00 81 1013.4
20190615014603 66 267 5.0 11.0 0.00 0.00 0.00 80 1013.3
20190615013135 67 248 6.0 12.0 0.00 0.00 0.00 78 1013.3
20190615011623 68 222 4.0 13.0 0.00 0.00 0.00 77 1013.3
20190615010109 69 244 6.0 13.0 0.00 0.00 0.00 75 1013.3
20190615004620 69 269 8.0 14.0 0.00 0.00 0.00 74 1013.4
20190615003106 70 236 6.0 14.0 0.00 0.00 0.00 74 1013.4
20190615001602 70 273 5.0 14.0 0.00 0.00 0.00 74 1013.4
20190615000058 70 217 5.0 10.0 0.00 0.00 0.00 73 1013.5
20190614234546 70 188 4.0 12.0 0.00 0.00 0.00 71 1013.5
20190614233145 70 207 5.0 9.0 0.00 0.00 0.00 72 1013.5
20190614231609 70 290 6.0 10.0 0.00 0.00 0.00 71 1013.6
20190614230059 70 210 3.0 9.0 0.00 0.00 0.00 73 1013.7
20190614224614 71 233 5.0 9.0 0.00 0.00 0.00 71 1013.8
20190614223109 70 225 5.0 10.0 0.00 0.00 0.00 72 1014.1
20190614221601 70 219 6.0 9.0 0.00 0.00 0.00 71 1014.3
20190614220114 70 218 5.0 10.0 0.00 0.00 0.00 74 1014.3
20190614214556 70 240 6.0 11.0 0.00 0.00 0.00 74 1014.4
20190614213039 69 205 6.0 10.0 0.00 0.00 0.00 75 1014.5
20190614211553 68 204 3.0 9.0 0.00 0.00 0.00 79 1014.6
20190614210040 67 207 3.0 10.0 0.00 0.00 0.00 78 1014.8